Regional Weather Roundup
Issued by NWS

Home | Current Version | Previous Version | Graphics & Text | Print | Product List | Glossary Off
Versions: 1 2 3 4 5 6 7 8 9 10 11 12 13 14 15 16 17 18 19 20 21 22 23 24 25 26 27 28 29 30 31 32 33 34 35 36 37 38 39 40 41 42 43 44 45 46 47 48 49 50

584
ASUS43 KTOP 070708
RWRKS

WEATHER ROUNDUP FOR KANSAS
NATIONAL WEATHER SERVICE GOODLAND KS
100 AM CST SUN FEB 07 2016

NOTE:  "FAIR" INDICATES FEW OR NO CLOUDS BELOW 12,000 FEET WITH NO
SIGNIFICANT WEATHER AND/OR OBSTRUCTIONS TO VISIBILITY.

KSZ001>006-013>018-027>032-041>047-070800-
NORTHWEST KANSAS

CITY           SKY/WX    TMP DP  RH WIND       PRES   REMARKS
GOODLAND       CLOUDY    30  24  78 N6        30.12R
HAYS           CLOUDY    36  19  51 NW14      30.08R WCI  27
HILL CITY      CLOUDY    39  27  62 NW17G28   30.08R WCI  30
RUSSELL        CLOUDY    34  25  69 W14       30.05R WCI  25
$$

KSZ061>065-074>080-084>089-070800-
SOUTHWEST KANSAS

CITY           SKY/WX    TMP DP  RH WIND       PRES   REMARKS
DODGE CITY     CLOUDY    35  16  45 SW15      30.07F WCI  25
ELKHART          N/A     36  11  35 W10         N/A  WCI  28
GARDEN CITY    CLOUDY    32  18  56 SW10      30.07S WCI  24
GREAT BEND     CLOUDY    30  18  59 SW8       30.05F
LIBERAL        CLOUDY    34  16  47 W12       30.10F WCI  25
PRATT          CLEAR     33  17  52 SW15      30.07F WCI  22
$$

KSZ066>073-081>083-090>101-070800-
SOUTHEAST KANSAS

CITY           SKY/WX    TMP DP  RH WIND       PRES   REMARKS
CHANUTE        PTCLDY    36  28  73 S14       30.13F WCI  27
COFFEYVILLE    CLOUDY    37  28  70 S8        30.18S
HUTCHINSON     CLEAR     37  23  56 S10       30.07F WCI  30
MEDICINE LODGE   N/A     33  21  61 S7        30.11F
NEWTON         CLEAR     37  21  52 SW17G25   30.08F WCI  28
PARSONS        PTCLDY    36  27  69 S5        30.17S
WICHITA INTL   CLOUDY    36  26  67 S10       30.10F WCI  28
WICHITA JABRA  CLOUDY    39  25  57 S16G26    30.10F WCI  30
WICHITA MCCONL CLOUDY    37  26  64 S14       30.11F WCI  28
WINFIELD       CLEAR     33  26  75 SW7       30.15F
$$

KSZ007>012-019>026-033>040-048>060-102>105-070800-
NORTHEAST KANSAS

CITY           SKY/WX    TMP DP  RH WIND       PRES   REMARKS
CONCORDIA      CLOUDY    37  24  59 W12       30.01R WCI  29
EMPORIA        PTCLDY    40  26  57 S18G26    30.06F WCI  31
LAWRENCE       CLEAR     40  26  57 SW14      30.06F WCI  32
MANHATTAN      CLEAR     40  27  59 SW13      30.01F WCI  32
MARYSVILLE     CLOUDY    36  27  69 SW9       29.99S
OLATHE IND     CLEAR     39  27  62 S16       30.07F WCI  30
OLATHE EXE     CLEAR     36  26  67 S8        30.07F
SALINA         CLOUDY    40  22  48 S16       30.03F WCI  31
TOPEKA BILLARD CLEAR     40  25  55 SW12G20   30.04F WCI  33
TOPEKA FORBES  CLEAR     37  26  64 S14       30.04F WCI  28
$$




USA.gov is the U.S. government's official web portal to all federal, state and local government web resources and services.